When you browse on this site, cookies collect data to enhance your experience and personalize the content and advertising you see.
Visit our Privacy Policy to learn more. By continuing to use the site, you agree to this use of cookies and data.
  • In Österreich
  • Länderverzeichnis
  • Für 7 Tage
  • Wassertemperatur
  • Wetterkarte
  • News
  • Widgets
  • user-avatar
    Anmelden

    Stündliche Wetter Dubovaya Roscha

    Heute, 22 Januar, Mittwoch

    Zeit Temperatur Niederschläge Wind Luftdruck Luftfeuchtigkeit
    00:00 -6°C° 0.2 mm 6 m/S 737 mmHg 95%
    01:00 -7°C° 0.2 mm 7 m/S 736 mmHg 95%
    02:00 -7°C° 0.2 mm 8 m/S 735 mmHg 95%
    03:00 -7°C° 0.2 mm 8 m/S 734 mmHg 95%
    04:00 -8°C° 0.2 mm 9 m/S 733 mmHg 95%
    05:00 -8°C° 0.8 mm 9 m/S 732 mmHg 95%
    06:00 -8°C° 0.8 mm 9 m/S 731 mmHg 95%
    07:00 -8°C° 0.8 mm 9 m/S 730 mmHg 95%
    08:00 -8°C° 1 mm 9 m/S 729 mmHg 95%
    09:00 -6°C° 1 mm 9 m/S 728 mmHg 95%
    10:00 -6°C° 1 mm 9 m/S 727 mmHg 95%
    11:00 -6°C° 0.7 mm 8 m/S 727 mmHg 96%
    12:00 -5°C° 0.7 mm 8 m/S 726 mmHg 97%
    13:00 -4°C° 0.7 mm 7 m/S 726 mmHg 97%
    14:00 -3°C° 0.4 mm 7 m/S 726 mmHg 98%
    15:00 -3°C° 0.4 mm 7 m/S 726 mmHg 98%
    16:00 -3°C° 0.4 mm 7 m/S 726 mmHg 98%
    17:00 -3°C° 0.4 mm 6 m/S 727 mmHg 97%
    18:00 -3°C° 0.4 mm 6 m/S 727 mmHg 96%
    19:00 -4°C° 0.4 mm 6 m/S 727 mmHg 95%
    20:00 -5°C° 0.1 mm 5 m/S 728 mmHg 94%
    21:00 -6°C° 0.1 mm 5 m/S 728 mmHg 94%
    22:00 -7°C° 0.1 mm 4 m/S 729 mmHg 93%
    23:00 -8°C° 0 mm 4 m/S 729 mmHg 94%

    Morgen, 23 Januar, Donnerstag

    Zeit Temperatur Niederschläge Wind Luftdruck Luftfeuchtigkeit
    00:00 -9°C° 0 mm 4 m/S 729 mmHg 95%
    01:00 -8°C° 0 mm 3 m/S 729 mmHg 96%
    02:00 -9°C° 0 mm 3 m/S 729 mmHg 96%
    03:00 -9°C° 0 mm 3 m/S 729 mmHg 97%
    04:00 -10°C° 0 mm 3 m/S 729 mmHg 97%
    05:00 -10°C° 0.1 mm 3 m/S 729 mmHg 97%
    06:00 -10°C° 0.1 mm 3 m/S 729 mmHg 96%
    07:00 -10°C° 0.1 mm 3 m/S 729 mmHg 96%
    08:00 -10°C° 0 mm 3 m/S 729 mmHg 97%
    09:00 -9°C° 0 mm 2 m/S 730 mmHg 97%
    10:00 -9°C° 0 mm 2 m/S 730 mmHg 97%
    11:00 -8°C° 0 mm 2 m/S 730 mmHg 97%
    12:00 -7°C° 0 mm 2 m/S 729 mmHg 97%
    13:00 -6°C° 0 mm 2 m/S 729 mmHg 97%
    14:00 -6°C° 0.1 mm 2 m/S 729 mmHg 97%
    15:00 -3°C° 0.1 mm 1 m/S 729 mmHg 97%
    16:00 -3°C° 0.1 mm 1 m/S 729 mmHg 97%
    17:00 -3°C° 0.6 mm 1 m/S 729 mmHg 97%
    18:00 -3°C° 0.6 mm 1 m/S 729 mmHg 97%
    19:00 -3°C° 0.6 mm 1 m/S 729 mmHg 97%
    20:00 -4°C° 0.2 mm 1 m/S 730 mmHg 97%
    21:00 -4°C° 0.2 mm 1 m/S 730 mmHg 96%
    22:00 -7°C° 0.2 mm 2 m/S 730 mmHg 96%
    23:00 -6°C° 0.2 mm 2 m/S 731 mmHg 96%

    übermorgen, 24 Januar, Freitag

    Zeit Temperatur Niederschläge Wind Luftdruck Luftfeuchtigkeit
    00:00 -7°C° 0.2 mm 3 m/S 731 mmHg 96%
    01:00 -7°C° 0.2 mm 3 m/S 732 mmHg 96%
    02:00 -10°C° 0.1 mm 4 m/S 733 mmHg 95%
    03:00 -11°C° 0.1 mm 4 m/S 733 mmHg 95%
    04:00 -12°C° 0.1 mm 4 m/S 734 mmHg 94%
    05:00 -14°C° 0 mm 4 m/S 734 mmHg 95%
    06:00 -15°C° 0 mm 3 m/S 735 mmHg 96%
    07:00 -17°C° 0 mm 3 m/S 735 mmHg 96%
    08:00 -17°C° 0 mm 3 m/S 736 mmHg 96%
    09:00 -17°C° 0 mm 3 m/S 737 mmHg 95%
    10:00 -17°C° 0 mm 2 m/S 738 mmHg 95%
    11:00 -17°C° 0 mm 3 m/S 739 mmHg 94%
    12:00 -16°C° 0 mm 3 m/S 739 mmHg 94%
    13:00 -15°C° 0 mm 3 m/S 739 mmHg 93%
    14:00 -16°C° 0 mm 3 m/S 740 mmHg 94%
    15:00 -15°C° 0 mm 2 m/S 740 mmHg 94%
    16:00 -16°C° 0 mm 2 m/S 741 mmHg 95%
    17:00 -17°C° 0 mm 2 m/S 741 mmHg 96%
    18:00 -18°C° 0 mm 2 m/S 741 mmHg 96%
    19:00 -18°C° 0 mm 2 m/S 741 mmHg 97%
    20:00 -21°C° 0 mm 3 m/S 742 mmHg 97%
    21:00 -21°C° 0 mm 3 m/S 742 mmHg 98%
    22:00 -21°C° 0 mm 3 m/S 743 mmHg 98%
    23:00 -21°C° 0 mm 3 m/S 742 mmHg 98%

    25 Januar, Samstag

    Zeit Temperatur Niederschläge Wind Luftdruck Luftfeuchtigkeit
    00:00 -23°C° 0 mm 4 m/S 742 mmHg 99%
    01:00 -23°C° 0 mm 4 m/S 742 mmHg 99%
    02:00 -22°C° 0 mm 4 m/S 742 mmHg 98%
    03:00 -22°C° 0 mm 4 m/S 741 mmHg 97%
    04:00 -21°C° 0 mm 5 m/S 741 mmHg 96%
    05:00 -20°C° 0 mm 5 m/S 741 mmHg 95%
    06:00 -21°C° 0 mm 6 m/S 740 mmHg 94%
    07:00 -20°C° 0 mm 6 m/S 740 mmHg 94%
    08:00 -19°C° 0.2 mm 7 m/S 739 mmHg 94%
    09:00 -17°C° 0.2 mm 8 m/S 739 mmHg 94%
    10:00 -16°C° 0.2 mm 9 m/S 738 mmHg 93%
    11:00 -15°C° 0.5 mm 9 m/S 738 mmHg 94%
    12:00 -14°C° 0.5 mm 9 m/S 737 mmHg 94%
    13:00 -12°C° 0.5 mm 9 m/S 736 mmHg 94%
    14:00 -11°C° 0.3 mm 8 m/S 736 mmHg 94%
    15:00 -10°C° 0.3 mm 8 m/S 736 mmHg 94%
    16:00 -8°C° 0.3 mm 7 m/S 735 mmHg 94%
    17:00 -8°C° 0.1 mm 7 m/S 735 mmHg 94%
    18:00 -8°C° 0.1 mm 6 m/S 735 mmHg 95%
    19:00 -6°C° 0.1 mm 5 m/S 735 mmHg 95%
    20:00 -6°C° 0.1 mm 5 m/S 735 mmHg 96%
    21:00 -6°C° 0.1 mm 5 m/S 734 mmHg 96%
    22:00 -5°C° 0.1 mm 5 m/S 734 mmHg 96%
    23:00 -5°C° 0.1 mm 5 m/S 733 mmHg 97%

    26 Januar, Sonntag

    Zeit Temperatur Niederschläge Wind Luftdruck Luftfeuchtigkeit
    00:00 -4°C° 0.1 mm 6 m/S 732 mmHg 97%
    01:00 -4°C° 0.1 mm 7 m/S 731 mmHg 97%
    02:00 -4°C° 0.7 mm 7 m/S 730 mmHg 97%
    03:00 -4°C° 0.7 mm 8 m/S 729 mmHg 97%
    04:00 -4°C° 0.7 mm 9 m/S 728 mmHg 97%
    05:00 -4°C° 0.8 mm 9 m/S 728 mmHg 97%
    06:00 -4°C° 0.8 mm 9 m/S 727 mmHg 97%
    07:00 -4°C° 0.8 mm 9 m/S 726 mmHg 97%
    08:00 -5°C° 0.6 mm 10 m/S 726 mmHg 95%
    09:00 -5°C° 0.6 mm 10 m/S 726 mmHg 93%
    10:00 -5°C° 0.6 mm 10 m/S 726 mmHg 91%
    11:00 -5°C° 0.8 mm 9 m/S 726 mmHg 92%
    12:00 -5°C° 0.8 mm 9 m/S 727 mmHg 93%
    13:00 -6°C° 0.8 mm 9 m/S 727 mmHg 94%
    14:00 -6°C° 0.1 mm 8 m/S 728 mmHg 92%
    15:00 -7°C° 0.1 mm 8 m/S 728 mmHg 90%
    16:00 -8°C° 0.1 mm 7 m/S 729 mmHg 88%
    17:00 -8°C° 0 mm 7 m/S 730 mmHg 90%
    18:00 -9°C° 0 mm 6 m/S 730 mmHg 91%
    19:00 -9°C° 0 mm 6 m/S 731 mmHg 92%
    20:00 -9°C° 0.1 mm 6 m/S 732 mmHg 92%
    21:00 -11°C° 0.1 mm 7 m/S 733 mmHg 91%
    22:00 -11°C° 0.1 mm 7 m/S 733 mmHg 90%
    23:00 -12°C° 0 mm 7 m/S 734 mmHg 90%

    27 Januar, Montag

    Zeit Temperatur Niederschläge Wind Luftdruck Luftfeuchtigkeit
    00:00 -12°C° 0 mm 7 m/S 735 mmHg 91%
    01:00 -13°C° 0 mm 7 m/S 736 mmHg 91%
    02:00 -14°C° 0 mm 7 m/S 737 mmHg 91%
    03:00 -15°C° 0 mm 7 m/S 738 mmHg 91%
    04:00 -16°C° 0 mm 6 m/S 738 mmHg 92%
    05:00 -17°C° 0 mm 6 m/S 739 mmHg 92%
    06:00 -18°C° 0 mm 6 m/S 740 mmHg 93%
    07:00 -19°C° 0 mm 5 m/S 741 mmHg 93%
    08:00 -20°C° 0 mm 6 m/S 742 mmHg 93%
    09:00 -21°C° 0 mm 6 m/S 743 mmHg 93%
    10:00 -21°C° 0 mm 6 m/S 744 mmHg 93%
    11:00 -21°C° 0 mm 6 m/S 745 mmHg 92%
    12:00 -21°C° 0 mm 6 m/S 746 mmHg 91%
    13:00 -21°C° 0 mm 7 m/S 747 mmHg 90%
    14:00 -22°C° 0 mm 6 m/S 747 mmHg 90%
    15:00 -21°C° 0 mm 5 m/S 748 mmHg 90%
    16:00 -22°C° 0 mm 5 m/S 749 mmHg 90%
    17:00 -23°C° 0 mm 4 m/S 750 mmHg 92%
    18:00 -24°C° 0 mm 4 m/S 751 mmHg 93%
    19:00 -25°C° 0 mm 3 m/S 752 mmHg 95%
    20:00 -25°C° 0 mm 3 m/S 752 mmHg 94%
    21:00 -25°C° 0 mm 2 m/S 752 mmHg 94%
    22:00 -22°C° 0 mm 1 m/S 753 mmHg 93%
    23:00 -22°C° 0 mm 1 m/S 753 mmHg 91%
    Mehr zeigen